Regional Weather Roundup
Issued by NWS

Home | Current Version | Previous Version | Graphics & Text | Print | Product List | Glossary On
Versions: 1 2 3 4 5 6 7 8 9 10 11 12 13 14 15 16 17 18 19 20 21 22 23 24 25 26 27 28 29 30 31 32 33 34 35 36 37 38 39 40 41 42 43 44 45 46 47 48 49 50
787
ASUS43 KFSD 101310
RWRSD

WEATHER ROUNDUP FOR SOUTH DAKOTA
NATIONAL WEATHER SERVICE SIOUX FALLS SD
700 AM CST SAT DEC 10 2016

NOTE: "FAIR" INDICATES FEW OR NO CLOUDS BELOW 12,000 FEET WITH NO
SIGNIFICANT WEATHER AND/OR OBSTRUCTIONS TO VISIBILITY.


SDZ001>005-009-010-012>017-101400-
NORTHWEST AND NORTH CENTRAL SOUTH DAKOTA

CITY           SKY/WX    TMP DP  RH WIND       PRES   REMARKS
BUFFALO          N/A      0  -4  83 SE13      29.99F WCI -18
FAITH            N/A     -1  -4  87 SE15      30.15F WCI -21
MOBRIDGE       CLOUDY    -4 -11  72 E13       30.29F WCI -23
$$

SDZ012>016-024>037-041>051-057-063-072>074-101400-
SOUTHWEST AND SOUTH CENTRAL SOUTH DAKOTA

CITY           SKY/WX    TMP DP  RH WIND       PRES   REMARKS
RAPID CTY ARPT CLOUDY     1  -3  83 SE8       30.05F WCI -13
PIERRE         FLURRIES   0  -5  79 E12       30.29F WCI -17
CUSTER         CLOUDY     8   4  83 CALM      29.82F
ELLSWORTH AFB  CLOUDY     1  -3  84 SE9       30.03  WCI -14
PHILIP         CLOUDY     1  -2  87 E12       30.19F WCI -16
PINE RIDGE     CLOUDY     5   1  83 NE6       30.01S WCI  -6
SPEARFISH      CLOUDY     3  -2  78 NW5       29.97S WCI  -6
WINNER         LGT SNOW   7   2  80 E16       30.22F VSB 1   WCI -11
$$

SDZ004>011-016>023-039-040-101400-
NORTHEAST SOUTH DAKOTA

CITY           SKY/WX    TMP DP  RH WIND       PRES   REMARKS
ABERDEEN       CLOUDY    -5 -13  68 E10       30.42F WCI -23
WATERTOWN      CLOUDY     1  -3  83 CALM      30.37F
BROOKINGS      FLURRIES   4   0  83 E9        30.37F WCI -10
SISSETON         N/A     -6 -12  75 N5        30.47F WCI -17
$$

SDZ017-020-022-023-036>040-048>070-101400-
SOUTHEAST SOUTH DAKOTA

CITY           SKY/WX    TMP DP  RH WIND       PRES   REMARKS
SIOUX FALLS    LGT SNOW  10   7  87 E8        30.39F FOG     WCI  -2
HURON          LGT SNOW   3   0  87 NE5       30.39F FOG     WCI  -6
CHAMBERLAIN    LGT SNOW   6   2  84 E8G16     30.29F WCI  -7
MITCHELL       LGT SNOW   8   5  87 NE9       30.38F FOG     WCI  -5
YANKTON        CLOUDY    12   9  85 E3        30.37F
$$

ABBREVIATIONS USED IN REMARKS
   TC - TEMPERATURE IN CELSIUS
  WCI - WIND CHILL INDEX
   HX - HEAT INDEX
  VSB - VISIBILITY





USA.gov is the U.S. government's official web portal to all federal, state and local government web resources and services.